Wind_Speed
19 19 19 19 18 18 18 18 18 18 18 18 18 18 19 19 19 19 19 20 21 21 21 20 20 20 19 19 18 18 19 19 19 18 17 15 16 19 21 22 22 21 21 19 18 17 16 15 14 14 14 13 12 12 11 10 10 9 7 5 5 6 4 4 9 12 13 13 13 14 13 13 13 13 13 12 11 11 10 9 9 9 9 11 11 10 8 5
22 22 21 21 20 20 19 19 19 19 19 20 20 20 20 21 21 21 21 21 21 22 22 22 22 21 20 20 19 19 19 19 20 19 17 18 18 19 21 23 23 22 22 22 21 20 18 17 15 14 15 14 14 13 12 12 11 10 7 5 6 6 5 5 8 10 11 12 12 14 13 12 13 12 12 13 11 11 11 9 8 8 9 11 11 11 9 6
24 24 24 23 23 22 22 21 20 20 20 21 21 21 22 22 22 23 23 22 22 22 22 23 23 23 23 21 21 21 20 20 21 19 18 20 20 20 20 21 21 21 23 23 22 21 19 17 15 15 15 15 15 14 14 13 12 11 8 6 7 7 6 8 9 9 10 12 12 13 12 12 13 12 12 13 11 10 10 9 8 7 8 10 11 12 11 6
24 24 25 25 24 24 24 23 23 22 21 21 21 22 23 23 24 24 24 24 24 24 23 24 24 24 24 23 23 22 21 22 21 19 20 21 21 21 21 21 20 21 22 21 20 20 19 17 16 15 16 16 16 15 15 13 11 11 8 7 9 8 7 8 9 8 9 11 12 13 13 13 14 14 14 13 11 11 10 9 9 7 7 9 10 11 11 7
24 24 25 25 25 25 25 24 24 24 23 23 22 22 23 24 24 24 25 25 25 25 25 25 24 25 25 25 25 24 24 23 20 20 21 21 21 21 22 22 21 21 21 19 19 19 18 18 17 17 17 16 15 15 15 14 12 11 9 10 12 10 8 8 8 8 9 11 12 12 13 15 14 12 13 13 13 11 9 10 10 8 7 8 9 11 12 8
24 24 24 24 25 25 25 25 25 25 25 24 23 23 23 24 24 25 25 25 26 26 26 26 26 26 25 26 26 26 27 23 20 21 22 22 22 22 22 23 22 22 21 20 18 18 18 18 18 18 18 18 17 17 16 15 14 13 11 13 14 11 9 9 9 9 9 9 9 10 12 15 14 11 13 14 14 12 10 11 10 10 9 8 8 10 12 9
24 23 24 24 24 24 24 24 24 25 25 25 24 23 23 24 24 25 26 26 26 26 27 27 27 27 27 27 27 27 28 24 22 23 23 23 22 22 22 23 24 23 22 21 19 18 17 17 18 19 20 20 20 19 18 17 16 14 11 14 15 13 12 10 10 10 8 7 6 8 12 15 15 13 12 12 14 13 12 11 10 12 11 10 9 10 11 10
24 24 24 24 24 24 24 24 24 24 25 24 24 24 24 24 25 25 25 26 26 26 27 27 28 28 28 28 28 29 29 26 26 26 25 25 24 22 22 23 24 25 24 23 22 21 20 19 20 21 22 23 23 21 20 18 17 15 13 14 15 14 13 12 10 10 9 7 6 10 13 14 14 14 13 12 13 14 12 11 12 12 12 11 11 10 10 10
26 25 25 25 25 25 25 24 24 24 24 24 24 24 24 24 25 25 26 26 26 27 27 27 28 28 29 29 29 30 28 26 28 27 26 27 25 23 23 24 25 26 27 26 25 25 24 22 21 22 24 25 24 23 21 20 19 18 16 15 15 15 14 14 13 12 10 8 8 10 13 14 14 15 16 15 14 14 13 13 12 12 12 12 12 11 11 10
25 26 26 26 26 26 26 26 25 25 25 25 24 24 23 24 24 25 26 26 27 27 27 28 28 28 30 30 31 32 28 28 29 28 28 28 26 25 25 25 26 27 29 29 28 27 26 25 24 23 21 22 24 24 24 23 20 19 18 17 17 16 16 15 14 13 11 10 9 10 13 15 16 15 15 15 14 14 14 13 13 12 12 13 12 12 11 10
25 25 25 25 25 26 26 26 27 26 26 26 25 25 24 24 24 24 25 26 27 28 28 28 28 29 30 30 32 31 28 29 29 28 30 29 28 28 27 27 27 27 29 30 30 30 29 29 26 22 20 21 23 25 25 24 20 19 19 18 18 18 17 16 16 15 13 11 11 11 14 17 17 15 16 16 14 14 13 13 13 12 12 12 12 12 11 11
25 25 25 25 25 25 26 26 27 27 27 26 26 26 25 25 25 25 25 26 27 28 29 29 30 30 30 32 32 29 29 30 29 29 30 30 30 30 29 29 28 28 29 30 32 32 32 30 26 24 22 20 22 24 25 24 22 21 21 19 18 19 18 17 16 15 15 14 12 11 13 17 17 17 17 16 14 13 13 12 12 12 13 12 11 11 12 12
25 25 25 25 24 25 25 26 26 27 27 27 27 27 26 26 26 26 26 26 27 28 29 30 31 31 31 32 31 30 31 31 30 31 31 31 31 31 31 31 30 29 29 30 32 33 33 30 28 28 24 20 21 21 22 23 24 22 21 20 19 18 19 18 17 16 16 15 13 11 13 16 17 17 17 17 15 14 13 13 13 13 12 12 12 11 11 12
24 24 24 24 24 24 25 25 25 27 27 27 27 27 27 27 27 27 26 27 27 28 30 30 32 32 32 32 31 32 32 32 32 32 32 32 32 32 33 33 32 31 30 30 30 31 32 31 31 30 24 23 19 14 18 23 25 24 22 22 19 18 20 19 19 18 17 16 14 12 13 16 18 17 17 17 16 16 15 13 14 14 12 12 12 11 11 11
23 23 23 24 25 25 25 25 25 26 27 27 27 27 27 27 27 27 27 28 28 29 30 31 32 32 32 32 32 33 32 33 33 33 34 33 32 33 34 34 34 34 32 31 29 29 31 31 32 29 26 25 16 11 17 21 23 24 23 22 20 21 21 20 21 20 16 15 16 14 13 15 16 17 17 17 17 17 15 13 13 13 12 12 12 12 11 11
22 22 22 23 25 25 24 24 24 25 26 26 26 26 26 27 28 28 28 29 29 30 31 32 33 33 34 33 33 33 34 34 34 34 34 33 33 33 33 35 35 35 34 32 30 29 30 31 32 30 30 29 19 16 19 20 23 25 23 23 23 23 21 19 22 22 17 15 17 16 12 14 16 18 20 19 18 17 15 14 13 12 11 12 11 12 12 11
21 21 20 21 22 23 23 23 22 23 24 25 25 25 25 26 27 28 29 30 31 32 32 33 33 34 34 32 32 34 35 35 34 34 34 34 34 33 33 34 35 36 35 34 32 31 31 33 33 32 32 30 24 23 23 21 22 23 24 23 23 23 21 21 23 24 20 17 18 17 13 12 17 22 24 22 19 18 17 15 14 13 12 11 12 12 12 12
19 19 19 18 19 21 22 22 22 22 23 24 24 24 25 25 26 28 29 30 32 33 34 34 34 34 35 34 35 36 36 36 35 35 35 35 34 32 33 34 35 36 36 36 34 34 33 33 34 34 34 32 28 28 24 21 18 19 23 23 22 22 21 22 24 26 23 20 18 17 17 13 14 21 23 22 21 18 18 17 15 14 13 12 12 12 12 12
19 19 18 18 19 20 22 22 23 23 24 25 25 25 25 25 26 27 29 30 32 34 35 35 35 36 36 36 37 37 35 35 36 36 36 36 34 33 34 34 35 36 37 37 36 36 35 35 35 35 37 34 32 29 23 20 16 15 19 23 24 18 16 21 25 26 25 24 19 15 18 14 11 18 19 19 21 18 18 17 16 15 14 13 13 13 12 11
20 19 20 20 21 21 22 23 24 24 25 26 26 26 26 27 28 28 29 31 33 35 35 34 35 37 37 36 36 35 34 36 38 38 38 37 35 35 34 34 35 36 37 38 39 38 36 36 35 36 36 34 34 31 26 24 20 18 19 22 27 17 12 21 25 25 25 26 23 18 18 14 9 14 17 19 18 16 17 17 16 15 14 15 14 14 13 12
22 22 22 22 23 23 23 23 24 25 26 27 27 27 27 28 29 29 30 31 33 35 35 36 36 38 39 38 35 34 35 37 39 39 39 38 37 36 35 35 36 36 37 39 40 39 38 38 36 36 35 34 37 34 32 33 28 25 22 22 27 17 11 25 25 23 24 25 26 24 21 16 10 13 16 19 17 14 16 16 16 15 14 15 15 13 13 13
24 25 25 25 25 25 24 24 24 24 25 26 27 28 28 28 30 30 30 32 34 35 36 37 37 38 38 36 35 36 36 37 38 39 40 39 38 37 36 36 36 36 38 39 40 40 40 39 37 36 36 38 40 37 39 42 33 28 24 23 27 19 14 28 26 23 24 24 26 25 24 20 16 17 16 16 16 15 16 17 16 17 17 16 15 14 14 14
26 27 28 28 27 26 25 24 24 24 24 25 26 27 27 28 30 31 31 33 34 35 36 37 37 38 38 36 37 38 38 38 39 40 39 39 39 39 38 37 37 37 39 40 41 41 41 39 37 37 38 39 39 40 45 43 35 33 29 23 25 21 15 19 20 25 25 23 25 25 24 22 17 18 17 15 17 18 17 18 19 20 19 17 16 15 14 15
28 29 29 29 28 27 25 24 24 23 23 23 24 24 26 28 29 31 32 33 33 34 34 36 37 36 37 38 38 37 38 39 40 40 40 40 41 41 40 38 37 38 39 40 40 40 39 39 38 38 39 40 41 44 46 40 36 38 34 26 22 18 15 13 19 28 26 23 24 23 22 21 18 16 17 17 19 20 19 19 20 21 18 16 16 15 14 16
30 31 30 30 29 27 26 25 24 22 22 21 20 21 23 25 27 29 30 30 32 33 33 34 35 35 37 35 34 36 39 41 42 41 41 41 42 43 40 39 38 39 40 40 39 39 39 40 40 42 43 42 42 43 42 40 39 39 38 33 22 16 17 22 26 28 25 24 24 20 17 17 15 13 16 21 21 21 21 21 22 21 18 17 18 16 14 17
31 32 31 30 29 27 26 25 22 20 20 19 17 17 19 21 23 24 26 25 27 31 32 33 33 33 34 32 35 39 39 42 43 40 40 42 44 44 41 40 40 40 41 39 38 39 40 42 45 47 46 42 40 41 41 41 42 41 41 38 29 24 23 24 28 26 22 20 20 22 18 12 11 12 16 22 21 20 21 22 23 22 19 19 19 16 16 18
32 32 31 29 28 26 24 22 20 18 17 15 15 15 17 18 17 18 20 17 20 28 30 31 32 31 34 37 38 36 35 40 41 38 39 41 44 44 43 45 44 44 44 42 41 40 41 45 48 48 44 41 41 41 42 43 42 39 37 39 39 35 28 21 25 28 21 15 17 25 24 14 14 17 16 18 21 21 21 22 23 23 21 19 19 18 17 19
32 31 30 29 27 24 22 19 17 15 14 12 12 13 14 15 14 14 15 12 17 26 25 26 29 29 34 36 35 34 37 41 38 38 41 42 43 43 43 45 44 44 45 44 43 41 43 47 48 46 43 42 44 42 41 43 40 34 32 37 41 41 36 28 26 28 24 18 16 22 27 20 16 19 19 19 22 23 23 24 23 23 23 21 20 20 19 19
31 31 29 27 25 23 20 17 15 14 12 10 9 11 11 12 12 13 14 15 20 24 22 23 26 27 29 30 32 36 41 42 38 40 43 42 43 43 43 46 45 45 45 43 39 37 43 46 42 42 43 42 44 43 42 42 40 37 38 42 43 43 46 39 31 28 26 23 18 19 26 24 16 17 20 22 23 23 23 25 24 23 24 23 22 21 20 19
29 28 27 24 23 22 21 19 16 13 11 8 7 8 8 9 10 11 12 15 17 19 19 20 23 26 26 26 32 35 37 40 41 42 43 42 43 43 44 46 46 46 45 42 35 31 38 43 40 40 42 44 45 45 44 42 40 39 41 46 47 44 47 44 35 30 28 26 22 18 21 24 22 20 21 22 22 23 23 24 25 25 25 25 23 23 23 18
27 25 23 21 20 20 21 22 18 13 10 6 5 6 8 9 11 12 11 14 14 13 15 17 20 24 25 26 28 31 35 38 39 37 38 40 41 41 42 43 45 46 47 44 38 36 41 45 46 45 45 48 50 46 44 42 41 41 39 43 46 43 43 42 39 37 34 27 21 19 19 20 25 26 24 23 22 23 25 25 26 26 25 26 25 25 24 19
25 22 20 19 18 19 19 21 20 14 8 5 3 6 8 8 11 11 10 11 11 11 14 17 18 20 23 25 25 30 34 34 35 34 34 37 37 38 41 40 40 43 44 43 39 41 46 46 46 48 47 48 48 45 44 43 45 46 41 39 40 40 40 40 40 42 40 29 20 21 21 17 26 32 28 25 25 26 26 26 26 26 25 26 25 25 24 20
22 19 18 17 17 18 18 18 19 15 8 3 2 6 8 6 8 8 6 8 9 12 15 17 18 18 19 19 19 26 29 28 30 28 28 32 32 35 41 40 41 39 34 37 39 37 42 44 44 45 45 47 48 45 41 41 47 48 43 39 35 35 38 41 42 42 42 36 25 22 24 22 29 34 29 26 27 28 28 27 27 26 25 26 25 24 24 22
20 17 16 15 16 18 17 15 17 16 9 3 2 5 6 5 7 8 7 9 9 11 13 13 17 18 16 16 16 20 23 23 25 23 23 29 28 32 39 39 43 42 29 25 30 28 31 39 45 44 44 47 50 46 37 37 45 46 41 39 33 30 33 39 39 37 38 40 32 22 22 26 32 33 30 28 27 28 29 28 28 27 26 27 26 24 22 21
18 15 14 14 16 17 16 14 14 15 11 2 2 4 3 4 8 8 8 9 9 11 13 13 16 17 15 19 19 18 20 21 25 24 21 23 22 23 30 32 37 43 37 27 24 23 20 25 39 45 44 47 48 48 46 43 44 43 40 39 35 29 27 28 29 28 28 32 31 27 28 30 34 36 36 32 28 27 29 29 29 29 28 28 27 23 21 20
15 14 12 13 15 16 15 12 11 13 11 4 3 4 2 5 8 8 7 8 10 11 12 13 16 16 16 19 18 19 21 22 26 23 16 20 24 27 33 35 36 41 43 37 28 23 18 21 38 46 43 46 47 47 51 48 41 39 39 41 39 29 20 19 20 22 22 24 27 33 38 38 34 34 36 35 32 29 29 30 31 30 29 29 28 24 22 22
13 12 11 12 14 15 14 11 9 10 9 6 6 2 3 6 8 8 7 9 9 10 13 14 15 16 19 19 17 21 23 23 25 22 20 24 28 33 36 35 37 37 39 40 30 23 20 27 42 46 41 46 48 44 49 48 41 37 35 36 35 28 24 25 23 22 22 24 26 30 38 42 40 36 35 35 36 35 32 32 32 31 31 30 29 26 24 23
12 10 10 11 13 15 13 12 10 8 7 9 9 5 3 5 7 8 8 9 11 12 14 14 13 13 14 15 16 21 23 22 23 20 20 24 24 30 34 33 36 36 36 38 32 26 21 20 34 46 45 46 46 43 46 47 44 41 37 33 31 27 29 32 30 25 25 26 27 26 27 34 38 39 38 36 36 39 38 34 33 33 32 31 30 29 26 24
11 9 9 10 11 13 14 12 10 8 7 9 8 6 3 3 6 8 9 10 12 13 11 10 13 12 11 13 14 18 19 18 20 20 19 23 24 27 31 32 35 35 36 39 37 33 24 12 23 41 47 45 45 44 43 42 43 44 41 37 32 25 27 30 30 27 25 25 25 24 24 27 31 39 45 42 38 40 40 37 36 35 35 33 32 30 28 26
11 8 9 9 9 11 12 12 11 11 9 6 4 5 4 1 5 8 10 10 10 11 10 10 14 12 11 14 15 17 19 17 18 22 21 22 23 25 27 29 32 33 35 37 39 37 30 17 17 34 47 45 42 43 41 36 37 41 41 39 35 27 22 24 28 25 21 22 24 25 28 33 35 39 45 42 37 38 40 39 38 37 37 35 33 31 29 28
11 9 8 8 7 8 10 11 12 12 8 4 3 3 3 1 5 7 9 10 8 8 10 11 12 13 13 15 15 17 21 21 20 21 20 20 22 23 23 25 27 29 31 34 37 37 37 28 16 26 41 39 36 43 44 39 39 42 42 38 33 28 23 23 27 26 21 22 24 25 31 38 39 39 42 38 34 34 38 41 40 39 38 37 35 33 31 30
11 10 9 7 6 6 7 9 10 9 7 5 3 2 2 1 4 7 8 10 9 8 10 10 10 14 15 14 15 17 20 22 20 18 17 19 20 20 21 21 22 26 29 33 36 37 38 34 21 18 26 30 38 48 46 44 45 44 44 39 28 24 25 23 23 24 25 27 25 24 33 41 40 38 40 39 36 35 36 40 42 41 40 39 37 35 33 32
10 10 10 8 6 5 6 7 7 7 7 7 5 3 0 1 3 6 9 11 10 9 10 10 9 11 13 13 14 17 18 19 18 16 16 17 18 18 20 20 20 22 25 31 36 35 33 33 29 23 22 29 42 47 43 44 46 41 39 40 33 25 26 28 26 28 30 29 28 27 32 40 40 36 36 37 37 36 37 40 42 42 41 40 38 37 35 33
9 10 10 10 9 7 7 6 5 5 6 6 6 5 2 2 3 5 8 11 12 11 10 11 11 11 13 14 13 15 16 15 16 16 15 16 18 18 18 19 20 21 23 26 32 34 33 33 32 27 27 32 39 42 43 45 46 40 35 39 42 36 33 34 34 36 35 30 30 31 32 34 35 33 34 36 37 38 38 40 42 43 43 41 39 38 36 35
7 8 9 10 10 10 9 7 5 4 4 4 5 5 4 1 2 5 7 9 11 13 12 12 13 12 14 16 16 17 16 14 15 16 14 15 18 17 17 18 19 21 22 22 26 32 34 36 34 28 26 29 32 37 42 41 41 42 42 44 46 44 41 37 34 37 37 32 33 37 36 35 33 32 33 34 37 39 39 40 41 43 45 43 41 40 38 36
6 7 7 8 9 10 10 8 7 6 4 4 3 2 3 2 1 4 7 8 10 12 13 13 13 13 12 14 15 17 17 16 15 16 15 16 17 17 18 18 18 20 22 22 24 28 32 35 36 33 27 25 28 33 38 37 36 43 48 47 45 45 45 40 37 39 39 36 37 42 44 41 35 33 34 34 36 38 39 39 41 43 45 45 44 42 40 39
5 5 6 6 7 8 8 8 8 8 7 5 4 1 0 0 2 3 5 8 9 10 12 13 14 14 13 13 12 13 14 16 17 17 16 17 18 18 19 19 19 20 21 23 24 26 30 33 35 36 33 29 28 31 35 37 39 44 49 48 45 46 45 42 43 44 41 40 41 41 44 45 41 37 36 33 35 37 39 39 40 42 44 45 45 44 43 41
3 5 5 6 6 7 7 7 7 7 7 7 6 4 1 1 3 3 4 6 9 10 12 13 14 15 15 14 13 12 12 14 16 17 17 17 18 19 19 20 20 21 21 23 24 25 28 32 34 35 35 33 31 31 34 38 41 42 44 45 45 45 44 44 47 46 41 42 43 40 40 43 44 43 40 37 36 36 38 39 40 41 43 45 46 46 46 44
2 4 4 5 5 6 6 6 6 6 6 6 7 7 6 3 1 4 5 6 7 8 10 12 13 15 15 16 16 15 15 15 16 16 16 16 17 18 20 20 21 21 21 22 24 24 26 30 32 33 34 34 33 32 32 36 39 39 41 43 44 44 44 46 47 47 45 44 44 43 41 41 43 44 43 40 39 38 38 39 40 41 42 44 46 47 48 47
2 3 3 4 4 5 5 5 5 5 5 5 5 6 7 7 5 2 4 7 9 8 9 10 11 13 15 16 17 17 17 17 17 16 17 17 17 18 18 18 19 20 21 22 23 24 26 27 28 30 32 33 34 33 33 33 35 38 40 41 42 43 44 45 46 47 47 46 44 44 43 43 42 42 41 39 38 40 41 40 40 41 42 44 46 47 49 49
2 2 3 4 4 4 4 5 5 5 4 3 3 4 5 6 6 6 3 4 9 10 10 10 10 10 11 12 13 14 16 17 18 18 18 19 19 18 18 17 17 18 19 20 21 22 26 27 26 28 30 32 33 33 33 33 32 35 38 40 41 42 42 44 46 47 47 49 47 45 44 43 43 42 41 39 39 41 42 42 41 41 41 43 44 46 49 50
2 2 2 3 4 5 5 5 5 5 4 3 2 2 3 4 5 6 6 4 4 8 10 11 11 11 11 10 10 11 11 12 14 15 16 16 16 17 17 16 17 18 18 19 19 21 24 24 25 27 27 30 34 33 32 33 31 33 37 38 39 41 41 44 47 48 48 49 48 47 46 45 44 44 42 42 44 44 42 41 41 41 41 42 43 44 47 49
Wind_Direction
264 264 264 264 264 264 265 266 266 264 260 256 251 246 242 239 236 233 231 231 232 233 232 230 229 228 225 223 222 224 227 229 228 226 222 216 211 208 210 217 219 219 222 221 220 216 211 208 201 200 198 196 193 195 195 184 192 191 171 173 157 140 131 140 148 143 152 161 169 178 174 169 173 170 164 158 150 148 145 146 146 148 154 139 121 111 111 120
265 263 263 263 262 262 261 261 263 263 262 259 255 251 246 242 239 236 233 230 230 232 232 232 230 229 228 225 222 222 225 228 229 227 221 217 214 209 208 214 217 217 219 219 219 217 213 209 203 200 198 198 196 196 199 192 189 187 178 175 160 145 136 128 143 156 165 168 179 185 182 176 173 174 167 157 152 148 148 152 146 143 147 137 125 119 119 130
267 265 264 263 262 261 260 259 259 259 260 259 257 254 250 246 242 239 236 232 230 230 231 232 232 231 229 227 224 222 222 225 228 227 222 220 217 213 210 213 215 216 220 220 220 219 216 211 206 204 201 200 199 198 201 198 192 188 184 175 163 152 148 139 144 169 180 180 191 191 191 187 178 181 171 158 153 147 146 145 134 135 143 137 130 125 125 138
270 268 266 264 263 261 260 259 257 257 256 257 256 254 252 249 245 242 239 236 233 231 230 230 231 232 231 229 227 224 222 223 224 223 223 222 219 216 213 213 214 215 220 222 222 221 219 213 208 208 207 206 202 201 202 203 201 191 185 181 171 162 164 156 151 169 182 191 198 190 192 192 182 177 165 160 157 148 147 141 130 135 143 140 138 130 125 135
272 270 268 266 265 263 261 259 257 256 254 254 253 252 251 249 248 244 241 238 235 233 231 230 230 231 231 230 230 227 225 224 221 221 223 222 220 218 215 214 214 215 218 218 218 219 217 214 210 209 210 210 208 206 204 204 204 197 190 183 177 172 171 166 160 163 171 186 197 195 198 195 190 180 160 157 159 153 153 151 141 137 140 143 143 133 124 131
275 273 270 268 266 264 262 260 258 256 254 252 250 249 249 248 247 245 243 240 237 235 233 232 230 230 230 230 230 229 228 225 220 221 222 223 221 219 217 216 215 215 216 216 214 213 213 211 209 209 209 209 209 208 208 205 204 205 200 185 180 179 175 170 163 161 164 172 189 201 204 202 200 187 160 156 164 169 166 160 153 143 141 144 144 138 131 134
279 276 273 271 268 266 263 261 259 256 254 251 248 246 245 244 244 244 243 241 239 237 235 233 232 231 229 230 230 230 230 225 220 220 220 222 221 219 218 216 216 215 216 216 212 211 210 206 206 208 208 207 206 206 207 205 202 207 206 191 187 185 184 183 171 167 163 157 183 201 199 201 197 184 172 170 171 174 169 162 158 151 148 144 144 144 137 137
279 277 276 273 271 268 265 262 259 257 255 252 248 245 242 241 241 240 241 241 240 238 236 234 233 232 231 230 229 229 230 225 223 221 218 221 219 218 218 216 216 215 215 214 212 211 208 205 204 206 207 206 204 204 205 205 205 208 207 198 195 192 194 197 186 179 171 160 181 196 195 196 193 185 185 188 177 171 172 168 161 156 155 149 146 148 140 137
280 277 275 274 272 270 267 264 260 257 255 253 250 246 241 239 238 237 237 238 239 238 237 236 234 232 232 231 230 230 229 225 225 223 219 220 218 216 217 216 216 214 214 214 213 212 210 207 206 207 209 207 204 202 202 204 207 208 206 202 199 198 201 204 198 190 183 175 176 187 194 195 195 191 184 185 182 178 181 175 164 160 160 154 148 148 143 141
282 279 277 274 271 269 267 265 261 258 255 253 251 248 244 239 237 235 235 235 236 237 236 236 235 233 231 231 231 230 227 225 226 225 222 221 217 215 215 216 217 215 214 214 214 215 214 212 210 211 212 210 207 204 202 205 209 208 204 204 202 200 202 206 204 197 192 187 181 187 196 197 197 195 187 188 186 184 186 176 165 162 162 158 154 149 144 145
286 284 281 277 273 269 267 265 262 259 255 253 250 248 246 242 238 235 234 234 234 235 235 236 236 234 232 230 231 230 227 227 227 225 224 221 217 215 214 216 216 216 215 214 215 215 216 217 214 212 212 211 209 207 205 205 209 209 205 205 205 204 202 206 207 202 198 194 192 195 198 198 196 193 193 195 192 187 186 178 168 164 164 163 159 156 149 147
289 287 284 280 276 271 268 265 262 259 256 252 249 247 246 244 241 237 235 233 233 234 234 234 235 235 233 231 230 229 227 227 226 225 224 222 219 216 215 215 216 217 216 215 217 217 217 218 216 214 214 212 210 211 208 205 209 208 207 207 206 207 204 204 207 206 204 200 198 202 203 202 197 195 197 198 196 191 186 180 174 166 165 165 163 163 158 149
289 288 285 281 276 272 268 264 262 259 256 253 249 247 245 244 242 240 237 234 233 233 233 234 234 235 234 232 230 228 227 226 225 225 224 222 221 217 215 215 215 217 217 217 218 219 220 218 217 217 214 212 214 214 208 206 210 208 207 208 207 210 208 205 208 209 207 202 198 199 203 202 195 198 202 200 197 193 190 184 178 174 169 166 167 168 165 157
290 288 285 281 277 273 269 266 262 260 257 254 250 248 245 243 242 241 239 236 234 232 232 232 233 234 234 233 230 228 227 226 225 225 223 222 221 219 216 215 215 215 216 218 219 221 222 219 219 220 215 213 213 210 207 207 209 208 207 208 208 212 211 208 210 210 208 204 200 196 202 204 194 193 199 198 195 190 191 189 181 183 179 171 171 170 170 168
290 288 285 283 279 276 272 268 265 262 260 256 253 249 246 244 242 241 239 237 236 233 231 231 232 233 233 232 230 228 226 225 225 224 224 222 220 219 217 216 215 214 214 215 217 220 222 221 222 222 218 215 204 195 209 209 210 208 205 207 210 215 215 210 211 214 213 207 201 197 206 212 198 189 193 197 199 195 193 193 191 191 185 178 176 173 176 174
292 290 287 284 281 279 276 272 269 265 262 259 256 252 248 245 243 241 239 237 236 234 231 231 230 231 232 231 229 229 227 226 225 225 224 222 221 219 218 217 216 215 214 213 213 215 218 221 223 222 220 216 200 195 207 206 209 208 203 204 208 217 220 213 214 217 214 209 207 204 207 218 212 202 202 204 203 201 201 196 193 199 193 186 182 180 182 180
294 292 289 285 283 283 280 277 274 270 267 263 259 256 252 248 244 242 239 237 235 233 231 231 230 230 231 230 229 228 228 227 225 224 224 223 221 219 218 218 217 217 215 213 211 210 212 215 218 220 221 218 205 201 205 201 206 207 203 204 206 215 220 219 220 218 215 210 210 213 212 219 219 208 203 204 201 197 204 202 192 199 202 194 191 189 187 185
300 298 295 291 288 286 285 283 279 277 274 269 265 262 257 252 247 244 240 237 234 233 231 231 229 228 228 226 226 227 226 226 224 223 224 223 221 218 217 217 217 217 216 214 212 210 211 212 214 215 218 219 211 209 207 198 201 205 205 204 205 215 220 222 223 220 218 208 204 219 224 226 219 204 196 200 201 193 198 203 197 200 205 199 199 198 192 190
308 305 303 300 296 293 292 291 288 285 280 276 273 268 263 257 251 246 242 238 235 234 233 232 229 228 229 227 226 226 224 225 224 223 223 222 220 217 216 216 216 216 215 215 214 212 211 211 212 212 213 214 213 213 209 198 199 212 217 207 203 213 223 222 221 222 222 212 212 226 222 224 219 204 202 204 206 202 203 209 204 200 202 205 211 206 196 193
316 313 310 307 305 302 299 296 293 289 284 281 277 271 266 261 254 249 244 239 236 235 234 232 230 229 230 228 226 225 224 224 223 222 222 221 219 217 215 214 214 215 215 215 214 213 212 212 212 213 213 211 211 212 206 205 204 206 212 209 204 205 223 227 219 219 223 218 226 235 220 220 216 209 216 214 210 210 213 215 210 205 201 203 209 204 197 195
321 319 316 314 312 309 305 300 295 290 285 282 277 271 265 260 256 252 246 241 238 235 233 231 229 228 228 226 223 223 223 223 222 221 220 219 218 216 214 213 213 214 214 215 214 213 213 212 211 212 212 210 210 208 206 213 210 195 195 206 205 189 214 237 225 217 223 219 224 233 231 235 231 221 221 215 216 214 212 215 216 220 218 211 211 213 207 201
324 323 322 320 317 314 309 304 297 291 286 281 276 270 263 258 255 251 246 242 239 235 233 232 230 229 229 226 222 221 221 222 222 220 218 217 217 215 213 211 212 212 214 215 214 214 214 212 211 210 210 210 209 205 209 216 210 200 200 205 199 177 206 236 227 216 223 222 222 227 234 240 236 230 227 222 224 220 218 223 225 228 229 225 227 232 223 208
328 327 326 323 320 318 313 307 301 293 286 280 274 268 262 256 251 248 244 241 239 236 233 231 230 229 227 224 220 219 219 219 219 218 216 215 215 215 213 211 210 211 213 214 213 213 214 213 212 211 211 211 209 207 212 213 206 208 211 202 193 188 210 236 228 219 220 223 224 221 225 235 235 229 230 233 231 224 224 229 231 230 228 229 230 232 227 214
330 330 328 325 323 321 317 313 306 298 290 280 272 266 260 255 250 247 243 241 239 236 233 232 230 229 227 224 221 219 218 218 217 216 213 213 214 214 213 210 209 211 213 214 213 211 213 213 213 214 213 211 209 210 213 211 207 213 214 207 201 198 209 224 217 215 215 220 225 219 219 229 234 229 226 231 232 228 226 227 232 233 229 228 226 226 227 222
333 332 330 329 328 326 323 318 310 303 295 286 278 267 259 253 248 246 244 242 240 236 233 231 230 229 226 223 221 218 218 219 216 214 211 210 213 213 211 210 209 212 213 213 212 210 211 212 212 214 214 211 211 212 213 210 210 214 215 213 210 198 209 226 218 208 209 220 225 221 218 225 229 236 235 230 230 229 226 227 232 233 229 226 223 223 224 226
335 333 333 333 332 329 326 320 313 306 297 291 284 270 260 253 247 243 240 238 240 237 232 229 227 227 224 219 217 217 219 220 217 213 210 210 212 210 208 209 208 212 213 211 212 211 210 210 211 213 212 210 212 212 211 211 210 214 216 215 209 195 202 227 223 205 203 219 228 220 215 216 208 216 231 229 229 231 228 228 231 232 228 221 224 227 225 228
336 336 336 336 335 332 328 322 315 308 299 292 282 269 261 255 247 241 234 227 235 236 230 227 225 221 219 217 214 213 217 220 217 213 211 211 213 209 207 207 206 210 212 208 209 210 210 211 210 211 211 211 214 212 210 211 209 212 216 216 215 206 200 213 212 199 194 207 230 221 210 210 205 206 220 227 228 232 233 232 233 236 229 218 223 228 229 230
338 339 340 339 339 337 333 327 321 315 306 294 277 265 258 251 242 234 219 198 221 235 230 225 224 221 221 219 212 208 211 215 213 212 211 211 213 210 210 210 207 211 213 207 208 209 211 213 210 208 210 212 215 212 210 211 207 209 213 212 216 214 211 215 207 197 194 198 227 228 211 207 214 215 220 227 229 232 238 236 233 239 236 227 225 223 228 231
341 343 344 344 346 347 344 338 331 328 316 296 272 257 248 240 230 220 209 202 219 232 230 223 221 219 220 217 211 210 213 213 210 208 207 209 211 209 209 211 207 211 214 208 207 211 216 217 211 208 210 213 217 215 211 209 204 208 214 212 213 212 213 218 212 203 202 201 215 226 214 207 213 222 220 223 229 229 234 238 235 239 241 238 235 229 231 231
345 347 348 350 356 358 358 355 346 338 325 299 264 244 231 221 212 199 206 219 227 230 227 222 217 213 214 213 212 212 214 216 214 209 206 206 209 208 209 211 207 210 213 206 205 212 218 216 210 209 211 212 216 216 213 209 203 210 216 214 215 213 213 216 214 210 210 212 215 210 206 210 217 230 228 221 226 226 227 233 235 237 238 238 240 239 239 234
349 351 352 357 3 4 6 6 357 345 331 301 251 222 206 202 199 189 199 219 227 227 220 218 216 212 209 209 211 211 212 216 215 213 211 209 208 208 210 210 208 210 211 205 205 212 214 210 206 206 208 210 212 213 214 210 204 212 217 213 215 217 216 217 217 215 212 214 217 199 195 216 227 231 229 220 223 226 224 228 232 236 237 236 235 236 241 238
353 355 358 2 6 6 8 7 3 355 336 302 234 202 192 189 196 195 200 212 218 215 209 213 214 210 209 207 209 212 214 216 214 211 213 211 210 210 210 209 209 213 213 206 207 216 217 211 207 207 207 209 211 211 214 211 207 213 216 210 212 216 217 217 217 219 216 211 216 204 193 215 231 228 224 222 225 227 225 228 232 235 237 237 233 231 235 237
356 357 2 4 5 7 6 4 5 1 343 307 217 191 180 174 198 201 195 201 207 202 203 211 208 200 201 200 205 212 212 213 211 210 211 208 207 209 208 207 206 206 211 210 209 218 222 216 211 209 209 210 209 208 211 213 210 214 216 211 210 211 215 217 215 219 219 212 215 212 200 212 228 227 222 222 226 228 227 228 231 232 234 238 236 230 230 232
359 0 4 4 6 8 5 2 3 3 357 319 217 175 162 169 204 209 211 211 207 198 202 210 198 185 185 191 200 207 204 205 202 201 207 205 206 211 207 209 208 201 199 204 207 214 220 220 216 211 210 212 209 207 209 211 211 214 216 212 208 208 215 219 218 221 221 217 218 214 206 219 230 228 224 224 227 229 227 226 229 230 231 235 236 233 234 234
1 2 3 5 11 11 7 2 358 2 5 342 144 114 136 201 212 216 225 215 201 194 196 200 191 178 181 197 201 199 199 206 204 202 207 204 205 211 206 208 210 205 201 195 197 206 211 222 220 211 211 213 210 210 212 211 210 211 212 209 203 204 214 219 218 221 221 220 220 210 203 217 227 226 226 227 226 228 227 225 227 229 230 234 235 234 238 240
4 4 4 10 16 16 12 5 353 358 5 18 97 97 191 230 223 220 220 203 197 194 185 186 186 177 185 200 202 200 201 207 206 201 202 198 198 205 207 206 204 204 207 199 190 195 204 225 220 209 211 215 211 213 213 211 212 209 209 210 203 197 205 214 218 223 217 213 218 216 214 219 224 225 229 229 224 224 226 225 225 227 229 234 236 234 234 235
6 6 7 13 21 21 17 8 358 351 357 36 63 27 254 231 220 212 204 194 192 189 177 178 181 182 197 205 204 205 205 207 206 200 206 206 206 212 211 208 204 203 208 204 189 181 197 225 221 210 211 214 211 214 214 212 213 210 207 210 206 200 200 200 204 216 214 205 211 224 228 228 227 227 231 231 226 225 225 224 223 225 227 231 235 237 234 233
7 9 9 17 24 25 22 16 7 349 354 40 45 4 281 222 207 195 190 187 188 186 179 180 179 179 199 207 206 206 203 205 204 200 214 217 213 217 213 205 205 202 202 202 192 176 182 222 225 212 211 212 210 213 215 213 212 211 207 203 202 209 210 195 187 199 208 203 206 220 230 232 229 228 231 231 228 226 224 222 221 222 226 228 233 238 238 237
8 9 12 20 26 27 28 25 18 18 30 39 26 357 338 210 195 182 179 179 186 187 178 184 184 174 185 197 205 205 194 198 200 193 210 219 212 217 216 208 207 204 199 199 197 188 180 203 228 216 210 210 210 212 215 215 214 214 213 204 198 207 216 202 185 186 198 200 202 209 219 228 226 223 226 228 226 223 221 220 218 219 223 226 229 235 238 240
9 11 16 21 26 29 31 31 30 38 42 28 348 345 355 193 178 175 174 174 184 186 177 181 182 179 188 189 193 195 182 187 204 201 207 214 209 213 217 212 210 207 203 202 204 204 198 197 221 218 211 209 212 212 211 212 212 215 216 211 205 204 206 206 199 191 192 199 203 204 215 227 228 223 224 225 224 222 219 218 217 216 220 224 227 232 235 239
13 19 19 17 25 31 34 38 39 39 37 15 329 335 348 74 160 169 171 172 177 178 175 174 175 185 194 186 186 189 182 187 204 207 207 209 207 211 214 213 213 211 207 203 205 210 210 204 210 220 214 210 213 212 209 210 210 210 210 210 214 215 205 202 207 204 197 197 206 215 222 226 226 226 227 225 223 222 219 218 217 215 218 221 224 228 232 237
20 28 26 20 26 30 35 45 47 43 38 32 17 334 328 57 158 170 170 172 176 173 177 177 177 187 190 184 186 187 186 193 201 204 206 207 207 209 210 211 213 213 211 208 206 208 210 207 206 219 217 213 215 213 211 214 215 212 209 207 210 219 215 211 212 211 202 196 201 218 229 229 226 226 228 226 224 223 222 220 217 215 217 220 223 226 230 234
25 34 36 35 37 36 38 48 51 45 42 41 34 25 297 212 183 176 173 178 185 183 182 183 184 188 188 185 186 188 191 198 200 200 203 206 207 207 208 209 210 213 214 213 212 208 206 205 207 215 217 215 217 215 213 216 219 218 217 214 208 204 205 207 210 212 207 201 204 216 227 231 231 231 229 227 224 221 222 221 218 215 217 219 221 224 228 231
26 36 41 44 45 45 47 46 39 34 38 41 41 39 44 215 217 199 185 185 193 196 193 191 192 196 198 193 189 190 195 199 201 202 202 204 206 206 207 207 207 212 215 215 214 209 204 202 205 212 220 219 218 217 215 216 219 218 219 217 212 210 208 203 203 208 205 199 205 221 232 234 232 233 230 228 225 220 218 219 217 215 216 217 220 223 226 229
25 35 42 45 48 49 50 48 34 22 24 28 35 40 44 125 213 216 202 195 197 199 200 200 201 208 211 205 198 196 198 200 202 203 202 203 207 208 208 207 206 208 211 212 213 211 207 204 202 206 216 220 219 219 217 216 218 219 220 218 216 219 221 213 206 208 207 202 202 213 229 236 231 230 230 226 224 220 217 217 216 215 216 216 218 222 225 227
22 36 41 43 50 52 50 50 44 37 32 19 15 35 41 60 162 204 209 208 203 201 203 205 208 216 218 212 205 202 203 203 202 205 207 205 207 210 210 208 207 207 208 209 211 212 211 209 207 208 214 216 215 217 216 215 217 220 222 221 219 221 223 220 216 213 211 212 210 209 220 230 229 227 228 225 222 218 215 216 215 214 216 216 217 220 223 224
16 31 39 41 51 54 50 50 49 46 45 36 28 33 7 145 169 183 202 210 212 210 211 212 213 217 220 219 215 210 207 205 203 207 210 210 211 215 214 212 211 209 208 208 211 212 212 211 211 213 218 220 218 217 215 215 219 221 221 221 221 222 222 221 221 218 214 216 220 217 220 227 230 228 227 225 223 219 215 214 215 214 215 216 217 219 221 223
18 28 33 37 45 52 49 46 47 47 45 45 44 44 53 185 198 196 193 201 209 213 214 216 217 218 220 221 221 218 212 207 206 209 213 216 218 219 221 220 218 216 212 211 212 211 213 215 215 215 219 223 225 224 218 216 220 223 223 222 222 222 222 221 222 222 219 218 222 221 221 227 230 229 228 226 225 222 218 216 215 214 214 215 216 218 220 221
34 34 33 39 41 46 47 41 40 42 39 43 45 46 52 62 170 202 200 195 195 201 208 214 218 219 220 221 219 217 214 212 213 214 216 220 222 224 227 226 225 224 221 219 217 215 216 219 218 219 221 224 226 228 225 221 220 222 223 223 223 222 223 223 224 224 222 222 224 225 226 229 230 229 229 228 227 226 223 219 217 216 215 215 216 217 219 220
62 53 44 49 47 49 51 44 42 43 39 41 43 44 49 49 55 107 195 204 197 193 193 198 206 212 216 220 219 219 219 220 221 220 221 224 225 227 230 231 231 230 228 226 224 223 223 222 220 222 224 225 227 229 230 228 225 223 222 222 223 224 224 224 225 225 224 224 225 226 229 232 230 229 229 228 230 232 228 223 220 219 218 216 216 217 218 220
99 80 66 63 61 60 59 53 50 47 42 44 43 42 46 44 46 56 75 192 202 203 197 189 189 194 201 208 212 216 220 224 225 226 227 229 230 232 233 234 235 235 233 232 228 227 229 227 224 225 228 229 228 229 232 232 229 227 224 222 223 223 223 224 224 224 224 224 224 227 231 233 233 232 231 229 231 233 230 225 224 223 221 220 219 218 219 220
155 123 98 78 69 66 62 58 57 53 46 45 45 44 42 38 41 47 52 77 166 200 204 201 196 191 189 189 191 198 205 211 217 220 224 227 229 231 233 234 234 235 235 233 230 229 230 230 228 227 231 235 231 229 232 233 232 233 230 225 224 223 223 224 224 224 225 225 225 226 231 234 235 234 233 232 233 233 230 227 227 226 226 225 223 221 221 221
Height
5864 5863 5863 5863 5862 5862 5862 5862 5862 5863 5863 5863 5863 5864 5864 5864 5864 5864 5865 5865 5866 5866 5867 5868 5869 5870 5871 5872 5873 5874 5875 5876 5877 5878 5880 5882 5883 5884 5885 5885 5887 5889 5890 5891 5893 5894 5895 5896 5897 5898 5899 5900 5901 5901 5902 5902 5902 5904 5904 5904 5904 5904 5903 5902 5904 5905 5904 5904 5905 5906 5908 5909 5909 5908 5909 5910 5910 5912 5913 5913 5913 5913 5913 5912 5911 5911 5912 5913
5861 5861 5860 5860 5860 5860 5860 5860 5860 5860 5860 5860 5861 5861 5861 5862 5862 5862 5863 5863 5864 5864 5865 5866 5866 5867 5869 5870 5871 5872 5873 5874 5875 5877 5879 5880 5881 5882 5883 5884 5885 5887 5888 5889 5890 5892 5894 5895 5897 5898 5898 5899 5900 5901 5902 5902 5903 5904 5904 5904 5904 5904 5903 5903 5905 5905 5905 5905 5905 5906 5908 5909 5909 5908 5909 5910 5911 5912 5913 5913 5913 5913 5913 5912 5912 5912 5913 5914
5859 5858 5858 5858 5857 5857 5857 5857 5857 5857 5857 5858 5858 5858 5859 5859 5859 5860 5860 5861 5862 5862 5863 5863 5864 5865 5866 5868 5869 5870 5871 5872 5873 5875 5877 5878 5879 5880 5882 5882 5884 5885 5886 5887 5889 5891 5893 5895 5897 5898 5898 5899 5899 5900 5901 5902 5903 5904 5904 5903 5904 5904 5904 5904 5905 5905 5906 5907 5906 5907 5907 5908 5910 5910 5911 5912 5912 5913 5913 5913 5913 5913 5913 5913 5913 5913 5913 5914
5855 5855 5855 5855 5854 5854 5854 5854 5854 5854 5854 5855 5855 5856 5856 5856 5857 5857 5858 5858 5859 5860 5861 5861 5862 5863 5864 5865 5866 5868 5869 5870 5871 5873 5875 5876 5877 5879 5880 5881 5883 5884 5885 5886 5889 5890 5893 5895 5896 5897 5898 5898 5899 5900 5900 5901 5902 5903 5904 5904 5904 5905 5905 5905 5905 5905 5907 5907 5907 5908 5908 5909 5911 5910 5912 5912 5911 5912 5913 5913 5913 5913 5914 5914 5913 5913 5913 5914
5852 5852 5852 5852 5852 5851 5851 5851 5851 5851 5851 5851 5852 5853 5853 5853 5854 5854 5855 5855 5856 5857 5858 5859 5860 5861 5862 5863 5864 5865 5866 5867 5870 5871 5872 5873 5875 5877 5878 5880 5881 5882 5883 5885 5887 5889 5891 5893 5895 5896 5897 5898 5899 5899 5900 5900 5901 5903 5904 5904 5905 5905 5906 5906 5906 5905 5906 5907 5907 5907 5908 5910 5911 5910 5911 5911 5910 5912 5913 5913 5913 5913 5914 5914 5914 5914 5914 5915
5850 5849 5849 5849 5848 5848 5848 5848 5848 5848 5848 5848 5849 5849 5850 5850 5851 5851 5852 5853 5853 5854 5855 5856 5857 5858 5859 5860 5861 5862 5863 5866 5868 5869 5870 5871 5873 5875 5876 5878 5880 5881 5882 5884 5886 5888 5889 5891 5893 5894 5895 5897 5898 5899 5900 5900 5901 5902 5903 5904 5905 5905 5906 5906 5906 5905 5906 5907 5907 5907 5908 5910 5910 5910 5911 5912 5912 5913 5914 5914 5913 5914 5914 5914 5914 5914 5914 5915
5847 5846 5846 5846 5845 5845 5845 5845 5845 5845 5844 5845 5845 5846 5847 5847 5848 5848 5849 5850 5850 5851 5852 5853 5854 5855 5857 5857 5859 5860 5861 5864 5866 5867 5868 5869 5871 5873 5874 5876 5878 5880 5881 5883 5885 5886 5888 5890 5891 5892 5894 5895 5897 5898 5899 5899 5900 5902 5902 5903 5904 5905 5905 5906 5906 5905 5906 5907 5906 5906 5907 5908 5909 5910 5911 5912 5913 5913 5913 5913 5914 5914 5914 5914 5915 5915 5915 5915
5844 5843 5843 5842 5842 5842 5842 5842 5842 5842 5842 5842 5842 5843 5843 5844 5844 5845 5846 5846 5847 5848 5849 5850 5851 5852 5854 5855 5856 5857 5858 5861 5863 5864 5866 5867 5869 5871 5873 5875 5876 5878 5880 5881 5883 5884 5886 5887 5889 5890 5892 5893 5895 5896 5897 5899 5900 5901 5902 5903 5903 5904 5905 5905 5906 5905 5906 5907 5906 5906 5906 5907 5909 5911 5911 5912 5912 5913 5913 5914 5914 5915 5915 5915 5915 5915 5915 5916
5840 5840 5840 5839 5839 5839 5838 5838 5838 5838 5839 5839 5839 5839 5840 5840 5841 5842 5843 5843 5844 5845 5846 5847 5848 5849 5850 5852 5853 5853 5856 5859 5860 5862 5864 5865 5867 5869 5871 5872 5874 5876 5878 5879 5880 5882 5883 5885 5887 5888 5889 5891 5893 5895 5896 5898 5898 5900 5901 5902 5903 5903 5904 5904 5905 5905 5905 5906 5906 5905 5906 5907 5909 5910 5911 5911 5912 5913 5913 5914 5915 5915 5915 5915 5915 5916 5916 5916
5837 5836 5836 5836 5835 5835 5835 5834 5834 5835 5835 5836 5836 5836 5836 5837 5837 5838 5839 5840 5841 5842 5843 5844 5845 5846 5847 5848 5849 5850 5854 5856 5857 5859 5861 5863 5865 5867 5868 5870 5871 5873 5875 5877 5878 5880 5882 5883 5885 5886 5889 5891 5893 5894 5895 5896 5897 5899 5900 5901 5902 5903 5903 5904 5905 5906 5906 5906 5906 5906 5906 5907 5908 5910 5911 5911 5912 5913 5914 5914 5914 5915 5915 5915 5915 5916 5916 5917
5833 5833 5832 5832 5832 5831 5831 5831 5830 5831 5831 5832 5833 5833 5833 5834 5834 5835 5835 5836 5837 5838 5839 5840 5842 5843 5844 5845 5845 5848 5852 5853 5855 5857 5858 5860 5863 5864 5866 5867 5869 5871 5873 5875 5876 5878 5879 5881 5883 5886 5888 5889 5891 5893 5894 5895 5897 5898 5899 5900 5901 5902 5903 5904 5905 5905 5906 5906 5906 5906 5906 5907 5908 5910 5911 5911 5912 5913 5914 5914 5914 5915 5915 5915 5916 5916 5917 5918
5830 5829 5829 5828 5828 5828 5827 5827 5827 5827 5827 5828 5829 5829 5830 5830 5831 5831 5832 5833 5834 5835 5836 5837 5838 5839 5840 5841 5842 5846 5848 5850 5852 5854 5856 5858 5859 5862 5864 5865 5867 5869 5871 5873 5874 5875 5877 5879 5882 5885 5886 5888 5890 5891 5893 5894 5895 5897 5898 5899 5901 5902 5903 5903 5904 5905 5905 5906 5906 5906 5906 5907 5908 5909 5909 5911 5912 5913 5914 5913 5914 5915 5915 5916 5916 5917 5917 5918
5827 5826 5825 5825 5824 5824 5823 5823 5823 5823 5823 5824 5824 5825 5825 5826 5827 5828 5828 5829 5830 5831 5832 5833 5834 5836 5837 5838 5840 5843 5844 5846 5849 5850 5853 5855 5856 5859 5861 5863 5865 5866 5869 5871 5872 5873 5875 5878 5881 5882 5885 5887 5889 5890 5892 5894 5894 5896 5897 5899 5900 5902 5902 5903 5904 5904 5905 5906 5905 5905 5906 5907 5908 5908 5909 5910 5911 5913 5914 5913 5914 5915 5915 5916 5917 5917 5918 5918
5824 5823 5822 5821 5820 5820 5819 5819 5819 5819 5819 5820 5820 5821 5821 5822 5823 5824 5824 5825 5826 5827 5828 5829 5830 5832 5833 5835 5837 5839 5840 5843 5845 5847 5849 5851 5854 5856 5858 5860 5862 5864 5866 5869 5871 5873 5874 5877 5879 5880 5884 5886 5887 5889 5891 5892 5893 5895 5897 5898 5900 5901 5902 5903 5903 5903 5904 5905 5905 5905 5906 5906 5908 5909 5909 5910 5911 5912 5913 5914 5914 5915 5915 5916 5917 5917 5918 5918
5821 5820 5819 5817 5817 5816 5816 5815 5815 5815 5815 5816 5816 5817 5817 5817 5818 5819 5820 5821 5822 5823 5824 5825 5827 5828 5829 5832 5834 5835 5837 5839 5841 5843 5846 5848 5851 5853 5855 5857 5859 5861 5864 5866 5869 5872 5874 5876 5877 5880 5883 5885 5887 5890 5891 5892 5893 5894 5896 5898 5899 5899 5900 5902 5902 5902 5903 5905 5905 5905 5905 5905 5907 5910 5910 5910 5911 5911 5912 5913 5914 5915 5915 5916 5917 5917 5918 5918
5818 5817 5815 5814 5813 5812 5812 5812 5812 5811 5811 5812 5812 5812 5813 5813 5813 5814 5816 5817 5818 5819 5820 5821 5823 5824 5825 5827 5830 5832 5834 5835 5838 5840 5843 5845 5848 5850 5853 5855 5857 5859 5861 5864 5867 5870 5872 5874 5876 5879 5881 5883 5887 5889 5889 5891 5892 5893 5895 5896 5898 5898 5899 5901 5901 5901 5903 5905 5905 5905 5905 5905 5907 5909 5909 5910 5910 5911 5911 5912 5913 5914 5915 5916 5916 5917 5918 5919
5815 5813 5812 5811 5810 5809 5808 5808 5808 5807 5807 5807 5807 5808 5808 5808 5809 5810 5811 5812 5813 5815 5816 5817 5818 5820 5822 5825 5827 5828 5830 5832 5835 5837 5839 5842 5844 5848 5850 5852 5855 5857 5859 5862 5864 5866 5869 5871 5874 5877 5879 5882 5885 5886 5887 5889 5891 5893 5894 5895 5897 5898 5898 5899 5899 5899 5902 5904 5904 5904 5905 5905 5905 5906 5908 5909 5910 5911 5911 5911 5913 5914 5914 5915 5916 5916 5918 5919
5811 5810 5809 5808 5807 5806 5805 5804 5804 5804 5803 5803 5803 5803 5803 5804 5804 5805 5806 5807 5809 5810 5811 5812 5814 5816 5817 5820 5821 5823 5826 5828 5831 5833 5836 5838 5841 5845 5847 5849 5852 5854 5857 5860 5862 5864 5866 5868 5871 5873 5876 5879 5883 5884 5886 5889 5892 5893 5894 5895 5896 5896 5897 5898 5898 5898 5900 5904 5904 5904 5904 5904 5905 5905 5907 5909 5910 5910 5910 5910 5912 5914 5914 5915 5916 5916 5917 5919
5808 5807 5806 5805 5804 5803 5801 5800 5800 5799 5798 5798 5798 5798 5799 5799 5799 5800 5801 5802 5804 5804 5806 5808 5809 5810 5812 5815 5817 5819 5823 5825 5828 5830 5832 5835 5838 5841 5843 5846 5849 5851 5854 5857 5859 5861 5863 5865 5867 5870 5872 5876 5880 5883 5887 5890 5892 5894 5894 5895 5895 5896 5899 5897 5896 5897 5899 5902 5903 5903 5904 5904 5906 5906 5908 5909 5909 5909 5909 5910 5911 5913 5914 5915 5915 5916 5917 5918
5805 5804 5802 5801 5800 5799 5798 5797 5795 5795 5794 5793 5793 5793 5793 5794 5794 5795 5796 5797 5798 5799 5801 5803 5805 5806 5808 5811 5813 5817 5819 5821 5823 5826 5829 5832 5834 5837 5840 5843 5845 5848 5851 5853 5856 5858 5861 5863 5865 5868 5871 5875 5879 5882 5886 5887 5888 5890 5893 5894 5893 5896 5900 5896 5895 5897 5898 5901 5902 5901 5903 5905 5906 5906 5907 5908 5908 5908 5908 5910 5911 5912 5913 5914 5915 5916 5917 5918
5801 5800 5799 5797 5796 5795 5793 5792 5791 5790 5789 5788 5788 5788 5788 5788 5789 5790 5791 5792 5793 5795 5796 5798 5799 5801 5802 5806 5809 5813 5815 5817 5819 5822 5825 5828 5831 5833 5836 5839 5842 5845 5848 5850 5853 5856 5858 5861 5863 5866 5870 5874 5876 5880 5883 5882 5882 5887 5890 5892 5892 5897 5900 5894 5894 5897 5898 5900 5900 5899 5900 5903 5904 5905 5906 5907 5907 5908 5908 5910 5911 5912 5913 5914 5915 5915 5916 5917
5798 5796 5794 5792 5791 5789 5788 5786 5785 5784 5783 5782 5782 5782 5782 5783 5783 5784 5786 5787 5788 5790 5791 5793 5795 5796 5798 5802 5805 5808 5810 5813 5816 5819 5822 5825 5828 5830 5833 5836 5839 5842 5844 5846 5849 5853 5855 5858 5862 5865 5867 5869 5872 5876 5877 5876 5881 5887 5887 5889 5892 5896 5896 5892 5893 5897 5897 5899 5899 5899 5900 5900 5902 5904 5905 5906 5907 5908 5909 5909 5909 5910 5912 5913 5914 5915 5916 5917
5794 5792 5790 5787 5786 5784 5782 5781 5779 5778 5778 5777 5776 5776 5777 5777 5778 5779 5780 5781 5783 5784 5786 5788 5790 5792 5794 5797 5800 5802 5806 5808 5811 5815 5819 5822 5824 5827 5830 5833 5836 5838 5840 5843 5846 5850 5853 5857 5860 5862 5864 5866 5870 5872 5871 5874 5882 5884 5884 5888 5891 5893 5894 5894 5895 5895 5896 5898 5898 5899 5900 5900 5900 5902 5903 5905 5906 5907 5907 5907 5908 5909 5910 5912 5914 5916 5916 5917
5790 5788 5786 5783 5781 5778 5776 5775 5773 5772 5771 5771 5771 5771 5771 5772 5772 5773 5774 5776 5777 5779 5781 5783 5785 5787 5789 5792 5796 5799 5802 5804 5807 5811 5815 5818 5820 5823 5827 5830 5833 5835 5837 5840 5844 5847 5851 5855 5858 5860 5861 5863 5866 5867 5869 5875 5880 5881 5883 5887 5889 5892 5896 5896 5892 5891 5894 5897 5897 5898 5901 5900 5899 5900 5902 5903 5904 5905 5905 5906 5907 5908 5911 5912 5913 5915 5917 5918
5786 5784 5781 5778 5775 5773 5771 5769 5767 5766 5765 5765 5765 5766 5766 5766 5767 5768 5770 5771 5772 5774 5776 5778 5781 5782 5784 5789 5793 5795 5797 5800 5803 5806 5810 5814 5816 5820 5824 5828 5831 5832 5834 5838 5841 5845 5847 5851 5854 5856 5857 5860 5863 5865 5869 5874 5877 5879 5881 5885 5888 5892 5896 5892 5888 5891 5895 5896 5897 5899 5901 5902 5901 5901 5901 5901 5902 5903 5904 5906 5907 5909 5911 5912 5913 5915 5916 5917
5783 5780 5777 5774 5771 5768 5766 5764 5763 5762 5761 5761 5761 5761 5761 5761 5763 5764 5766 5768 5768 5769 5772 5774 5776 5778 5781 5785 5787 5790 5794 5795 5798 5803 5807 5810 5811 5816 5821 5824 5827 5829 5831 5835 5839 5841 5844 5846 5849 5850 5853 5859 5861 5863 5867 5870 5873 5876 5878 5881 5884 5886 5890 5890 5889 5892 5896 5897 5898 5898 5901 5902 5903 5903 5901 5900 5901 5902 5903 5905 5906 5908 5911 5912 5912 5913 5915 5916
5781 5777 5774 5771 5768 5765 5763 5761 5759 5758 5757 5757 5757 5757 5757 5758 5759 5761 5763 5767 5766 5765 5767 5770 5772 5774 5776 5778 5782 5788 5790 5791 5796 5801 5804 5806 5808 5813 5817 5818 5822 5824 5826 5831 5834 5837 5840 5841 5843 5847 5852 5857 5858 5860 5864 5867 5871 5875 5876 5879 5880 5881 5884 5886 5887 5891 5895 5898 5897 5896 5898 5901 5901 5901 5900 5900 5900 5901 5902 5903 5904 5906 5909 5912 5912 5912 5913 5914
5778 5775 5771 5768 5765 5762 5760 5758 5757 5756 5755 5755 5754 5754 5754 5755 5757 5758 5761 5765 5764 5761 5764 5767 5769 5772 5773 5776 5781 5784 5783 5786 5793 5796 5799 5803 5806 5811 5814 5815 5820 5822 5823 5827 5831 5834 5836 5836 5839 5846 5851 5854 5855 5858 5861 5865 5869 5872 5872 5875 5877 5879 5882 5883 5886 5890 5893 5896 5897 5896 5896 5899 5900 5898 5899 5900 5899 5900 5902 5902 5903 5904 5906 5910 5912 5912 5912 5913
5775 5772 5769 5765 5762 5760 5758 5756 5755 5753 5753 5752 5752 5752 5753 5754 5755 5757 5760 5761 5760 5760 5762 5765 5767 5769 5771 5775 5778 5778 5780 5784 5786 5788 5793 5798 5802 5807 5809 5812 5817 5819 5821 5826 5831 5833 5832 5834 5840 5845 5848 5851 5853 5855 5858 5862 5866 5867 5867 5870 5871 5874 5878 5881 5884 5888 5890 5892 5896 5897 5896 5897 5899 5897 5897 5898 5898 5899 5901 5902 5903 5903 5904 5906 5908 5910 5912 5913
5774 5770 5767 5764 5761 5759 5757 5755 5753 5752 5751 5750 5751 5751 5752 5753 5754 5756 5758 5758 5758 5759 5761 5763 5764 5766 5769 5772 5774 5776 5780 5781 5782 5786 5791 5794 5798 5802 5804 5808 5813 5815 5818 5825 5828 5828 5829 5833 5838 5842 5844 5847 5849 5852 5855 5859 5863 5863 5863 5867 5869 5872 5876 5879 5882 5886 5887 5888 5892 5894 5895 5897 5897 5896 5896 5896 5896 5898 5900 5901 5901 5903 5903 5903 5904 5906 5908 5912
5772 5770 5767 5764 5761 5759 5757 5754 5752 5751 5750 5750 5750 5750 5751 5752 5753 5755 5756 5756 5757 5758 5760 5761 5763 5765 5768 5770 5772 5775 5777 5778 5782 5788 5791 5793 5796 5799 5802 5806 5811 5812 5815 5821 5824 5822 5823 5827 5831 5834 5837 5840 5844 5849 5852 5857 5860 5858 5859 5865 5869 5871 5874 5878 5881 5882 5883 5886 5890 5890 5893 5898 5896 5894 5894 5894 5895 5897 5898 5899 5900 5901 5902 5902 5903 5904 5905 5909
5772 5769 5766 5764 5761 5759 5757 5755 5752 5751 5750 5749 5749 5750 5750 5752 5753 5754 5755 5756 5757 5758 5759 5760 5762 5764 5766 5769 5771 5773 5775 5778 5782 5786 5788 5792 5795 5797 5801 5805 5809 5812 5815 5820 5821 5819 5820 5825 5827 5830 5834 5837 5843 5847 5849 5853 5855 5854 5857 5863 5867 5869 5873 5876 5878 5879 5880 5886 5890 5889 5892 5898 5896 5891 5891 5893 5894 5895 5896 5897 5898 5899 5900 5900 5902 5903 5904 5907
5771 5769 5766 5763 5761 5759 5757 5755 5753 5751 5750 5749 5749 5749 5750 5752 5753 5754 5754 5755 5756 5757 5757 5759 5761 5763 5766 5770 5771 5771 5774 5778 5781 5785 5786 5789 5792 5794 5797 5800 5803 5809 5814 5818 5820 5818 5820 5824 5826 5829 5833 5836 5840 5845 5846 5849 5851 5852 5856 5862 5865 5868 5870 5871 5874 5877 5879 5884 5888 5888 5891 5895 5891 5887 5889 5891 5892 5894 5895 5896 5897 5898 5898 5898 5899 5901 5904 5907
5770 5768 5766 5764 5761 5759 5756 5755 5753 5751 5750 5750 5750 5750 5750 5752 5753 5753 5753 5753 5755 5756 5757 5759 5760 5763 5767 5771 5771 5771 5773 5776 5779 5783 5784 5786 5790 5792 5794 5797 5800 5804 5809 5814 5818 5818 5820 5823 5824 5827 5830 5832 5837 5842 5843 5845 5848 5852 5856 5861 5864 5867 5868 5870 5874 5876 5878 5881 5886 5889 5892 5892 5887 5886 5888 5889 5891 5892 5894 5895 5895 5896 5897 5897 5897 5900 5902 5906
5770 5768 5766 5763 5761 5759 5756 5755 5753 5752 5751 5750 5750 5750 5751 5751 5752 5752 5752 5753 5754 5755 5757 5759 5760 5763 5766 5768 5768 5769 5772 5774 5777 5781 5783 5786 5790 5791 5792 5794 5797 5801 5805 5809 5814 5818 5820 5819 5818 5823 5826 5829 5835 5837 5838 5842 5847 5850 5854 5857 5860 5865 5868 5871 5874 5876 5878 5882 5885 5887 5889 5887 5883 5883 5885 5887 5890 5891 5892 5894 5894 5895 5896 5895 5896 5900 5901 5902
5770 5768 5766 5763 5761 5759 5756 5755 5754 5753 5751 5750 5750 5750 5751 5751 5751 5752 5752 5753 5754 5755 5757 5758 5760 5762 5764 5764 5765 5767 5770 5772 5775 5779 5782 5784 5785 5786 5787 5789 5793 5798 5802 5805 5809 5816 5821 5816 5813 5820 5825 5827 5831 5833 5836 5842 5845 5847 5851 5853 5857 5863 5868 5871 5875 5876 5877 5881 5883 5882 5881 5881 5881 5882 5883 5885 5887 5889 5890 5892 5892 5893 5895 5894 5896 5899 5901 5902
5769 5768 5766 5763 5761 5759 5757 5755 5754 5753 5752 5752 5751 5750 5751 5751 5751 5751 5752 5753 5754 5755 5756 5758 5760 5762 5763 5763 5765 5766 5769 5772 5774 5777 5780 5780 5782 5783 5785 5788 5792 5796 5799 5803 5807 5812 5817 5813 5812 5818 5821 5822 5828 5831 5834 5839 5842 5846 5850 5853 5857 5861 5862 5865 5871 5874 5875 5879 5881 5879 5877 5878 5880 5881 5881 5882 5884 5887 5889 5890 5891 5892 5893 5894 5895 5897 5899 5901
5769 5767 5766 5763 5761 5759 5757 5756 5754 5753 5753 5752 5751 5751 5751 5751 5751 5751 5752 5753 5754 5755 5756 5757 5760 5762 5763 5764 5765 5766 5769 5772 5774 5777 5778 5778 5780 5781 5783 5787 5790 5793 5797 5802 5804 5806 5810 5810 5810 5814 5817 5820 5825 5829 5831 5835 5839 5842 5844 5848 5853 5857 5858 5860 5864 5869 5873 5876 5879 5879 5876 5876 5878 5879 5878 5878 5881 5884 5886 5889 5890 5891 5892 5893 5894 5895 5896 5898
5768 5767 5765 5763 5761 5759 5758 5756 5755 5753 5752 5751 5752 5752 5751 5751 5751 5751 5752 5753 5754 5755 5757 5758 5759 5761 5763 5765 5766 5767 5770 5772 5775 5777 5777 5776 5778 5780 5781 5784 5788 5791 5794 5797 5798 5800 5805 5809 5809 5810 5813 5818 5823 5826 5828 5833 5837 5839 5841 5845 5849 5853 5856 5859 5862 5866 5870 5874 5877 5879 5877 5874 5873 5874 5873 5874 5876 5880 5884 5886 5888 5889 5890 5892 5893 5894 5895 5896
5767 5766 5765 5763 5761 5760 5758 5757 5755 5754 5753 5753 5753 5753 5752 5751 5751 5752 5752 5753 5754 5755 5757 5758 5759 5761 5762 5764 5766 5767 5770 5772 5773 5774 5774 5774 5776 5778 5780 5782 5785 5788 5791 5794 5797 5800 5803 5808 5809 5808 5811 5817 5820 5822 5825 5829 5833 5835 5840 5844 5846 5849 5853 5858 5861 5863 5867 5872 5875 5877 5874 5869 5868 5868 5869 5871 5874 5877 5881 5884 5886 5888 5889 5891 5892 5893 5894 5895
5767 5765 5764 5762 5761 5760 5759 5758 5756 5755 5755 5755 5754 5753 5752 5751 5751 5752 5753 5753 5755 5755 5756 5757 5759 5761 5761 5762 5764 5766 5768 5770 5771 5771 5772 5773 5775 5777 5779 5781 5783 5786 5789 5792 5795 5798 5800 5805 5808 5808 5811 5814 5814 5817 5821 5824 5826 5829 5835 5841 5845 5847 5850 5853 5857 5860 5863 5868 5873 5875 5869 5862 5864 5866 5867 5870 5873 5876 5879 5881 5883 5885 5887 5889 5891 5892 5893 5894
5767 5765 5764 5762 5761 5760 5759 5758 5757 5757 5756 5755 5754 5753 5752 5752 5752 5752 5753 5754 5755 5756 5756 5757 5758 5760 5760 5761 5763 5764 5766 5767 5768 5769 5771 5772 5774 5776 5777 5779 5781 5783 5786 5788 5791 5794 5798 5803 5807 5807 5808 5809 5810 5815 5820 5821 5823 5826 5830 5835 5841 5845 5848 5851 5855 5857 5859 5862 5868 5869 5862 5857 5860 5863 5865 5868 5872 5874 5876 5878 5881 5883 5885 5887 5889 5891 5892 5893
5766 5765 5764 5762 5761 5760 5759 5758 5758 5758 5757 5755 5754 5753 5753 5752 5752 5752 5753 5754 5755 5756 5756 5757 5758 5759 5760 5761 5762 5763 5764 5765 5766 5768 5769 5771 5773 5775 5776 5778 5780 5782 5784 5786 5789 5793 5797 5801 5803 5803 5804 5806 5809 5813 5816 5818 5821 5825 5829 5831 5835 5839 5843 5847 5850 5851 5853 5858 5862 5861 5855 5853 5857 5860 5863 5866 5868 5871 5873 5875 5878 5881 5883 5885 5887 5889 5890 5892
5767 5765 5764 5762 5761 5760 5759 5759 5759 5758 5757 5756 5755 5754 5753 5753 5753 5753 5753 5754 5755 5756 5757 5757 5758 5759 5760 5761 5761 5762 5763 5764 5766 5767 5768 5770 5772 5773 5775 5777 5779 5781 5782 5785 5788 5791 5795 5797 5799 5801 5803 5805 5806 5809 5812 5815 5818 5821 5824 5826 5829 5833 5835 5839 5842 5844 5847 5853 5857 5857 5852 5852 5855 5858 5860 5863 5864 5867 5869 5871 5874 5878 5880 5883 5885 5887 5888 5890
5766 5765 5764 5763 5761 5760 5759 5759 5758 5758 5757 5756 5755 5755 5754 5753 5753 5753 5754 5754 5754 5755 5756 5757 5758 5759 5759 5760 5761 5762 5763 5764 5766 5767 5768 5769 5771 5773 5774 5776 5778 5780 5782 5784 5786 5789 5791 5794 5797 5799 5800 5802 5804 5806 5809 5812 5815 5816 5818 5822 5826 5829 5832 5836 5840 5842 5845 5848 5851 5850 5847 5847 5852 5854 5856 5858 5860 5863 5865 5868 5871 5874 5877 5880 5882 5884 5886 5887
5766 5765 5764 5763 5761 5760 5759 5759 5758 5757 5757 5756 5756 5755 5754 5753 5753 5753 5753 5754 5754 5755 5756 5757 5758 5758 5759 5760 5760 5761 5763 5764 5765 5766 5767 5769 5770 5772 5773 5775 5777 5778 5780 5782 5784 5786 5789 5792 5794 5795 5796 5797 5800 5802 5805 5809 5812 5813 5816 5820 5824 5825 5829 5834 5836 5838 5842 5844 5845 5844 5842 5843 5847 5850 5852 5854 5856 5859 5862 5865 5867 5870 5873 5876 5879 5881 5883 5885
5766 5765 5764 5763 5761 5761 5760 5759 5758 5758 5757 5756 5755 5755 5754 5754 5754 5753 5753 5753 5754 5755 5755 5756 5757 5758 5758 5759 5760 5761 5762 5763 5764 5765 5767 5768 5769 5771 5772 5774 5775 5777 5779 5781 5783 5785 5787 5789 5791 5792 5793 5795 5797 5799 5803 5806 5808 5809 5813 5816 5820 5823 5826 5830 5831 5832 5837 5840 5840 5841 5842 5842 5844 5847 5849 5851 5853 5856 5859 5861 5864 5867 5869 5872 5875 5877 5879 5881
5765 5764 5763 5762 5761 5760 5760 5759 5758 5758 5757 5756 5756 5755 5754 5754 5754 5753 5753 5753 5753 5754 5754 5755 5756 5757 5758 5758 5759 5760 5761 5762 5763 5765 5766 5767 5768 5770 5771 5772 5774 5776 5777 5779 5781 5783 5785 5786 5788 5790 5792 5793 5795 5797 5800 5802 5804 5807 5811 5814 5817 5820 5822 5824 5825 5829 5834 5836 5836 5838 5841 5840 5841 5843 5845 5848 5850 5853 5856 5858 5860 5863 5865 5868 5871 5873 5876 5878
5764 5764 5763 5762 5761 5760 5759 5759 5758 5758 5757 5757 5756 5755 5754 5754 5754 5753 5753 5753 5753 5753 5754 5754 5755 5756 5757 5757 5758 5759 5760 5761 5762 5763 5765 5766 5767 5769 5770 5771 5772 5774 5776 5778 5779 5782 5783 5784 5786 5789 5790 5792 5793 5795 5797 5799 5802 5805 5807 5810 5813 5815 5817 5819 5822 5826 5830 5832 5833 5835 5836 5835 5836 5839 5841 5845 5847 5849 5852 5854 5856 5859 5862 5864 5867 5869 5872 5874
5764 5763 5763 5762 5761 5760 5759 5759 5758 5758 5757 5757 5757 5756 5755 5754 5754 5753 5753 5753 5753 5753 5753 5754 5754 5755 5756 5756 5757 5758 5759 5760 5761 5763 5764 5765 5766 5767 5768 5769 5771 5772 5774 5776 5778 5780 5781 5782 5785 5787 5788 5790 5792 5793 5795 5797 5799 5801 5803 5806 5809 5811 5814 5817 5819 5822 5826 5828 5830 5832 5831 5829 5831 5835 5839 5842 5844 5845 5847 5850 5853 5855 5858 5861 5863 5866 5868 5870
5763 5763 5762 5762 5761 5760 5759 5759 5758 5757 5757 5757 5757 5756 5756 5755 5754 5753 5753 5752 5752 5753 5753 5753 5754 5754 5755 5755 5756 5757 5758 5759 5760 5761 5762 5763 5764 5765 5766 5768 5769 5770 5772 5773 5775 5777 5778 5780 5783 5784 5786 5787 5789 5791 5793 5794 5796 5798 5799 5802 5804 5807 5809 5811 5814 5817 5820 5823 5826 5828 5826 5825 5828 5832 5835 5839 5840 5840 5842 5846 5849 5852 5854 5857 5860 5862 5864 5866
5763 5762 5762 5761 5761 5760 5759 5758 5758 5757 5757 5757 5756 5756 5756 5755 5755 5754 5753 5752 5752 5752 5752 5753 5753 5754 5754 5755 5756 5756 5757 5758 5759 5760 5761 5762 5763 5764 5765 5766 5767 5768 5770 5771 5773 5774 5775 5778 5780 5782 5783 5783 5785 5788 5790 5791 5794 5794 5795 5797 5800 5802 5805 5806 5809 5813 5816 5818 5823 5824 5822 5822 5824 5828 5831 5834 5835 5836 5839 5842 5845 5848 5850 5853 5855 5858 5860 5863